Theta_e
342 343 341 339 347 347 351 354 351 350 349 346 347 350 350 347 350 350 342 340 338 341 341 341 342 340 340 340 340 340 339 339 339 339 339 338 338 338 338 339 340 340 340 340 340 340 341 342 342
342 343 339 340 348 353 350 347 353 350 346 345 345 345 347 347 342 342 341 342 339 341 341 339 341 340 338 336 337 336 337 337 337 337 337 337 337 337 336 337 337 338 339 338 338 339 340 339 340
341 341 338 344 351 351 352 349 348 346 345 347 347 344 347 346 341 340 340 339 337 338 339 341 338 336 333 334 333 332 333 333 332 331 329 330 327 325 329 328 330 331 332 334 335 336 338 339 338
341 337 338 348 351 349 347 348 347 347 346 345 345 348 344 343 342 341 338 337 338 338 338 338 331 326 323 325 322 321 322 323 323 322 322 322 321 321 323 321 317 316 317 321 324 327 329 330 332
339 338 344 347 349 348 345 345 346 347 346 346 344 346 345 343 342 339 337 337 337 337 335 328 323 322 320 319 319 318 317 318 319 320 320 323 319 322 319 318 317 317 320 320 321 322 318 320 325
338 337 345 349 349 345 343 344 347 347 346 343 343 345 343 342 340 338 338 337 337 332 325 324 323 323 321 320 320 320 318 317 315 315 316 316 318 321 320 319 318 317 321 319 318 319 320 320 319
341 339 344 348 349 345 345 343 343 344 344 346 341 345 342 341 340 338 338 336 332 324 324 326 327 327 324 320 320 321 320 320 320 319 319 321 323 322 324 320 320 319 323 322 322 323 323 322 322
339 339 348 347 349 346 340 345 344 347 347 340 340 345 342 339 339 339 337 334 327 325 326 326 325 325 325 323 321 321 321 321 320 321 320 319 319 321 320 325 322 320 325 324 325 325 326 325 324
335 342 345 344 343 342 343 347 346 343 342 343 341 341 339 338 339 339 334 331 327 325 327 324 319 320 323 324 322 322 322 322 320 320 319 319 318 319 320 320 322 324 324 322 321 319 318 323 322
337 341 344 340 338 340 342 346 347 346 345 342 337 339 340 340 339 331 330 327 327 326 325 320 319 318 319 319 319 320 324 323 321 319 318 318 318 318 318 318 318 317 318 317 317 317 317 318 317
339 339 342 341 341 338 342 345 344 346 347 341 339 334 338 328 327 326 326 325 326 322 319 319 319 318 318 318 318 319 320 321 322 321 319 318 318 318 317 317 317 317 317 318 317 317 315 317 317
342 340 339 340 342 342 342 345 347 347 345 338 330 330 330 325 323 322 321 321 321 321 320 320 317 316 316 317 317 318 318 318 320 321 320 319 318 318 315 315 317 317 317 317 316 316 316 317 317
342 340 338 340 340 342 345 347 347 345 335 328 326 325 324 324 324 323 321 322 322 321 321 320 318 319 319 319 317 318 319 318 317 318 319 319 318 317 317 315 316 317 318 316 315 315 316 317 318
336 339 338 336 340 345 347 346 345 344 330 329 326 325 324 325 325 325 323 322 321 321 321 320 321 322 322 322 320 319 319 319 318 319 318 319 319 317 317 317 316 316 317 316 315 315 317 318 316
336 341 338 336 338 346 344 348 350 342 333 332 329 326 325 325 326 325 326 323 321 321 321 322 323 323 323 322 323 320 320 320 320 321 318 319 319 318 317 317 316 315 315 315 315 315 315 317 315
336 336 337 335 336 345 343 349 346 339 337 334 330 328 326 325 326 326 326 326 325 322 321 321 324 324 324 325 324 323 321 321 322 322 321 319 318 318 317 317 317 317 315 315 315 315 315 315 316
336 335 340 341 338 342 344 350 346 339 339 337 333 330 330 326 327 327 326 327 326 323 319 321 321 323 327 327 325 324 324 323 324 321 318 321 319 318 317 317 317 316 315 315 315 315 315 316 315
333 342 340 343 339 340 345 349 344 341 340 339 335 331 331 329 328 329 328 328 326 324 321 319 320 321 323 327 325 324 325 325 323 319 318 318 319 318 318 317 316 316 317 315 315 315 314 316 316
334 340 339 338 337 338 343 350 346 343 340 339 337 335 333 332 330 330 330 328 327 326 327 327 320 320 323 325 327 327 325 323 323 321 321 319 318 319 318 317 316 317 317 316 316 314 315 316 316
337 339 339 337 339 340 345 350 347 345 343 340 338 337 335 333 330 330 330 329 329 329 328 326 323 325 325 326 326 327 325 323 322 320 321 323 320 318 318 318 318 317 318 317 317 314 316 317 316
335 338 337 336 344 345 346 348 345 343 339 339 340 338 335 333 332 330 329 330 329 328 328 328 329 328 328 328 327 326 325 324 323 322 319 322 320 320 319 318 318 318 319 318 316 315 316 316 317
333 330 333 335 337 341 342 346 346 341 340 340 339 337 336 333 332 331 330 329 329 330 330 330 329 328 327 326 326 325 325 323 322 321 319 320 320 319 319 319 319 319 318 319 317 316 315 317 316
330 332 331 331 329 331 344 342 339 337 339 337 334 334 330 329 328 328 329 330 331 331 328 326 326 325 324 324 324 322 323 323 323 321 319 319 320 319 319 317 317 318 317 317 317 315 315 316 316
332 333 328 322 321 324 335 340 338 337 338 337 327 330 327 326 327 326 328 328 329 326 325 324 324 323 322 322 320 321 321 321 319 316 317 317 317 319 318 318 316 317 318 316 316 315 315 316 316
330 328 332 331 328 326 338 339 335 335 336 331 326 326 323 325 325 322 325 327 327 326 324 322 323 318 317 317 318 320 321 319 317 316 316 315 316 318 319 317 318 316 315 314 314 315 315 316 317
333 327 332 332 327 324 336 341 336 334 332 327 324 322 321 323 320 319 323 325 326 321 321 320 317 316 316 317 318 318 316 314 314 315 313 313 315 316 317 318 318 317 314 315 315 315 315 316 315
334 329 325 322 323 324 334 336 333 333 333 330 324 321 321 320 318 317 318 319 317 317 320 318 317 316 314 316 315 314 313 314 315 312 312 313 313 314 316 317 317 317 316 316 315 315 315 316 315
331 326 329 323 331 331 337 339 337 334 333 330 322 321 319 315 315 312 313 316 314 314 315 314 314 312 315 314 313 314 312 312 313 312 313 314 314 314 314 314 316 316 316 316 315 315 315 315 315
325 324 323 321 325 329 332 333 330 330 330 325 321 319 318 310 309 309 309 312 313 312 313 313 313 314 314 313 312 313 311 312 313 312 313 314 314 314 315 315 315 316 315 315 315 315 315 315 315
324 325 323 326 325 323 324 327 325 324 324 321 320 319 317 309 308 308 308 310 310 312 312 313 313 312 311 311 311 311 311 312 312 312 311 312 313 313 315 316 316 315 314 315 315 315 315 316 315
Wind_Speed
9 3 1 4 5 6 4 4 4 4 3 3 3 5 6 6 2 2 4 14 12 12 9 9 9 9 8 9 9 10 10 10 10 11 11 11 10 10 9 7 7 7 6 6 4 4 4 3 2
8 3 4 3 4 3 3 4 4 1 6 8 8 5 5 3 3 6 8 12 14 13 11 7 7 8 8 8 8 9 10 9 10 11 10 10 9 8 7 7 7 7 7 7 7 6 6 4 4
4 6 3 4 3 5 4 5 4 10 10 1 4 5 3 2 6 7 5 16 14 12 11 9 7 7 7 7 7 7 8 8 8 9 9 8 8 7 7 6 6 6 7 7 7 7 8 7 6
3 6 4 4 4 2 2 10 6 10 4 6 5 5 4 4 7 8 19 16 15 13 11 8 7 7 6 6 5 5 4 4 4 4 4 5 5 5 5 6 7 9 10 9 9 9 8 8 8
5 3 4 3 3 2 1 12 12 5 4 2 2 3 3 3 7 17 19 18 16 14 10 8 7 5 6 6 6 7 5 4 4 3 3 3 4 4 5 8 8 11 12 12 10 10 10 10 10
3 3 5 1 3 2 4 5 4 3 4 5 5 3 2 5 18 19 19 17 14 13 12 9 6 4 4 5 6 7 7 7 4 3 3 2 2 3 4 6 7 9 12 13 12 10 10 11 12
5 4 3 1 2 1 5 4 5 6 6 3 8 4 1 6 18 20 17 15 14 13 11 7 5 2 1 3 5 6 7 8 6 6 6 6 5 4 6 6 9 10 10 12 12 12 12 12 11
4 4 3 1 3 3 6 3 5 4 3 7 7 5 6 11 20 18 13 13 14 11 8 4 1 2 2 1 3 3 2 4 4 5 5 5 7 3 6 6 11 9 9 12 12 13 14 12 11
4 3 0 2 2 3 6 5 2 5 7 2 2 5 8 28 22 16 15 13 12 11 6 4 2 3 4 3 4 6 5 3 3 3 2 5 7 5 3 3 8 4 8 9 6 7 9 7 9
4 3 4 3 3 5 6 4 8 4 3 3 3 8 24 25 23 20 19 17 15 13 9 9 5 6 5 1 2 3 7 7 5 3 4 5 7 8 7 9 7 6 7 6 5 9 9 6 8
3 4 2 3 8 9 6 4 4 11 4 6 10 9 18 21 20 21 19 17 16 17 14 11 8 6 4 1 3 4 1 6 9 8 6 6 6 9 11 9 8 9 9 6 8 12 13 9 11
4 1 4 3 3 5 8 5 4 1 3 9 7 12 12 13 15 21 21 20 20 17 16 12 9 7 4 1 2 1 2 5 5 10 9 9 8 9 11 11 9 9 8 7 11 10 13 14 13
4 2 1 3 5 5 7 4 5 4 10 14 12 8 8 10 12 14 19 17 22 21 17 12 9 4 1 3 3 4 5 6 7 9 9 11 9 8 8 11 7 8 6 6 13 14 14 12 8
6 7 2 3 2 3 7 4 4 2 10 12 11 8 7 12 17 17 20 20 21 19 16 12 9 5 4 5 5 5 6 8 11 13 11 14 12 8 7 10 7 10 8 10 14 14 10 10 13
2 3 4 5 7 6 9 1 3 10 7 6 8 8 6 12 17 21 24 23 23 18 15 12 10 10 10 9 9 8 8 9 11 15 13 13 14 12 12 12 10 8 10 12 13 12 13 11 15
5 3 4 6 8 6 6 3 6 11 14 12 8 7 6 6 14 17 18 19 20 20 18 16 12 12 12 15 16 15 12 12 15 17 18 16 17 16 14 12 13 12 10 11 13 14 14 15 16
3 4 2 4 9 6 6 4 13 9 13 12 10 7 7 7 14 21 21 21 20 19 21 20 16 15 16 18 18 20 18 17 19 15 16 20 19 20 17 13 12 13 13 12 12 11 15 14 16
6 4 5 6 6 1 5 5 16 12 9 12 10 7 8 9 15 22 23 21 19 21 21 22 21 19 20 18 18 23 24 22 17 14 14 13 18 18 18 16 15 13 14 14 12 13 15 13 15
5 4 4 2 6 7 7 9 17 15 11 8 10 12 10 13 20 19 20 20 19 21 23 23 24 27 26 23 23 27 30 27 24 22 15 14 15 17 17 16 15 15 15 16 13 12 12 12 13
7 5 7 4 3 4 6 4 10 13 11 10 10 9 11 10 8 12 17 17 18 21 20 20 23 25 24 24 29 25 24 24 18 17 18 16 19 20 19 18 16 15 16 16 15 13 11 10 14
3 6 6 7 4 4 6 1 3 5 5 5 8 10 7 12 10 7 13 19 18 17 18 19 17 21 22 24 26 22 24 25 23 21 18 14 16 24 23 21 19 18 18 17 14 15 12 13 12
5 9 6 7 6 4 3 4 5 6 7 6 6 9 10 10 7 7 11 15 17 15 12 12 14 16 17 17 16 19 22 25 27 23 23 22 18 17 17 16 19 21 18 18 15 14 14 12 13
9 7 4 3 3 5 0 2 4 3 5 6 6 4 7 8 7 6 6 7 8 5 4 5 7 8 10 12 14 17 21 23 23 24 25 25 21 18 18 18 17 16 16 15 15 15 15 15 15
2 1 2 3 3 3 2 5 3 5 6 4 2 3 6 6 5 6 8 9 10 8 8 6 5 7 8 9 11 16 18 19 21 22 24 26 27 27 25 17 15 15 17 15 15 14 16 16 14
2 5 4 4 4 5 1 1 6 5 5 8 8 8 7 7 7 7 9 12 13 10 9 9 10 10 10 11 13 14 16 17 20 21 23 26 27 24 24 23 18 15 15 13 14 15 16 16 15
1 6 5 5 4 4 3 3 3 3 5 5 6 7 4 7 6 6 8 11 12 13 14 13 14 15 14 14 12 10 11 14 17 20 22 25 26 25 25 23 20 16 16 16 17 17 17 16 14
1 3 3 5 2 2 2 5 5 1 4 5 5 7 7 6 5 7 10 14 14 16 17 17 19 17 13 11 8 10 11 14 18 19 21 22 23 23 23 19 17 17 18 19 16 16 15 17 15
3 2 2 3 2 5 2 4 5 7 9 6 7 9 8 6 7 6 10 15 17 16 17 18 15 12 11 9 9 11 11 14 18 21 23 23 22 25 25 24 22 21 20 19 17 16 14 15 15
4 3 5 4 3 3 1 5 6 9 11 10 8 8 8 8 8 7 11 15 16 14 16 14 10 10 10 10 9 12 16 18 17 19 21 24 27 27 25 22 21 21 19 19 17 16 16 16 16
3 2 4 4 3 1 3 6 2 9 8 10 9 9 7 6 7 5 9 9 6 7 7 8 8 7 7 6 11 16 16 15 16 16 19 22 24 23 23 17 16 17 16 17 14 13 18 14 13
Wind_Direction
145 131 79 47 56 59 320 303 305 63 42 358 26 65 86 32 55 200 116 153 158 144 134 130 117 112 107 96 95 94 87 81 80 75 68 74 69 60 55 53 52 42 41 35 44 26 8 18 15
132 26 61 95 84 81 262 273 248 292 125 126 80 82 54 72 62 112 118 180 160 152 145 135 122 112 106 99 94 87 85 82 79 77 75 71 72 66 60 57 52 42 28 22 14 12 8 345 340
139 6 72 89 107 158 190 169 136 143 172 90 106 44 67 73 97 144 149 157 157 155 148 134 129 113 102 95 93 90 89 85 80 71 67 60 55 54 47 40 31 16 7 5 359 355 357 353 333
190 25 33 77 115 222 221 155 150 152 125 66 98 68 88 23 158 176 153 153 154 150 149 147 138 121 101 88 63 49 42 46 49 48 45 47 35 20 26 25 13 8 352 336 328 327 328 326 319
48 59 56 50 313 270 138 164 165 148 115 107 108 115 48 26 159 150 154 155 158 155 153 146 133 111 93 72 44 26 13 3 358 5 19 24 18 24 35 32 31 16 4 345 329 320 311 311 312
51 96 59 4 293 161 105 146 108 71 103 128 90 86 23 147 147 154 158 162 161 156 153 143 129 121 102 61 45 44 33 28 16 349 336 357 348 2 356 6 357 3 357 360 357 348 336 319 309
114 80 164 237 265 268 146 116 114 120 144 149 139 97 98 169 162 160 163 166 166 160 155 147 149 131 97 51 29 37 33 34 44 43 41 7 334 337 313 338 333 332 335 338 342 342 341 338 337
96 87 150 257 198 179 159 100 124 105 47 105 160 163 180 201 168 163 169 169 173 166 153 136 109 259 253 282 353 346 360 18 28 11 8 29 20 349 342 303 333 318 308 328 325 331 325 320 334
122 72 291 281 241 156 146 121 29 39 128 53 249 151 175 170 168 164 171 177 180 176 178 152 146 216 187 238 302 289 262 283 326 353 339 344 345 356 16 27 353 353 320 345 352 10 13 353 330
80 101 223 240 302 169 170 138 140 111 147 35 50 90 132 151 168 166 176 187 193 196 179 161 122 127 141 178 331 309 226 248 274 265 311 329 346 334 322 316 325 320 333 345 354 345 349 354 338
163 158 114 232 289 175 154 128 124 134 210 191 171 140 138 146 158 165 181 183 177 167 167 170 154 138 136 136 41 62 216 261 259 254 275 283 310 330 319 314 318 336 340 331 333 340 329 327 334
117 167 175 253 41 126 162 126 91 297 265 118 134 131 132 146 155 161 171 173 169 171 172 165 159 145 129 56 301 322 286 294 257 252 264 260 290 334 346 324 304 328 333 331 334 333 325 330 327
128 265 103 223 259 131 112 84 124 63 82 99 102 103 127 135 142 157 165 170 178 178 179 177 169 169 108 18 332 285 306 293 312 301 269 261 281 313 334 342 311 339 331 335 341 334 325 328 334
159 185 140 344 165 112 111 151 77 103 111 119 127 142 146 151 168 166 174 175 180 186 188 191 202 220 264 296 311 283 270 259 278 307 270 270 266 277 312 326 286 289 298 322 327 337 327 332 334
54 91 350 256 186 160 121 8 116 149 108 134 160 167 174 188 187 189 190 194 197 202 207 211 224 241 252 272 285 292 278 278 290 297 282 270 253 260 292 288 275 297 306 302 317 318 323 318 332
38 47 198 187 176 176 137 200 153 148 152 164 192 182 192 223 218 219 216 218 218 223 228 230 233 241 261 273 277 279 278 285 291 297 275 271 256 260 265 269 278 273 304 301 307 307 317 317 321
43 261 258 310 201 150 187 137 170 170 179 181 184 197 187 222 237 235 231 233 235 238 237 239 241 253 263 276 267 271 279 281 293 282 289 263 265 257 261 272 278 274 287 302 307 309 315 315 314
207 228 255 235 169 120 168 135 171 184 189 206 190 202 207 219 232 241 242 240 238 242 248 253 251 264 271 276 274 271 275 277 287 284 287 285 271 256 255 265 273 273 276 283 283 297 304 307 314
188 186 246 238 188 157 195 155 184 183 196 218 213 211 202 225 239 239 244 235 239 247 249 257 258 263 268 270 277 274 271 278 283 272 287 291 282 253 254 269 269 270 277 280 275 291 295 301 314
141 222 237 268 212 130 150 171 196 193 203 212 218 223 227 232 240 228 233 234 236 245 253 259 258 267 268 269 270 282 279 283 284 281 287 287 278 259 260 270 276 274 273 270 273 277 278 292 308
205 188 249 215 108 37 116 280 217 225 232 245 218 224 218 232 238 222 219 230 233 239 248 255 270 277 283 281 274 279 279 281 284 287 291 296 290 266 262 266 271 277 273 265 266 269 267 281 294
185 224 229 172 133 227 167 250 233 195 239 243 232 232 222 219 224 227 214 227 232 243 259 271 275 284 286 287 288 287 284 285 292 292 304 296 284 267 262 260 267 271 267 259 267 268 267 265 276
232 175 226 320 187 104 116 86 258 132 238 250 271 218 177 201 203 221 213 217 223 199 211 256 266 281 282 284 289 293 289 290 298 300 300 297 280 270 264 269 271 269 264 263 269 268 264 265 268
50 131 71 85 86 11 199 171 246 184 197 193 220 218 165 159 168 147 162 161 151 156 176 194 212 225 246 265 275 283 289 296 300 310 311 310 305 280 270 272 263 267 263 266 271 269 266 269 265
104 60 340 343 355 229 206 141 250 223 219 178 180 183 178 176 172 169 167 166 173 185 191 203 205 222 228 246 260 275 285 296 302 305 304 308 306 300 281 277 267 262 259 254 260 266 267 270 261
124 156 154 238 225 267 330 259 273 278 202 174 177 180 168 167 172 160 165 174 180 196 202 201 207 219 228 245 253 264 277 288 290 301 310 310 305 301 296 291 268 253 248 252 257 264 257 259 258
257 240 212 127 60 76 288 306 306 191 237 171 182 159 189 190 194 194 179 186 193 207 198 207 216 226 238 237 234 255 277 286 289 302 305 307 310 312 305 288 281 267 252 254 259 265 260 255 265
194 162 286 22 260 269 264 274 237 230 230 211 180 189 200 203 194 170 181 187 199 202 204 211 221 235 227 227 252 256 279 284 290 303 303 312 307 309 308 292 269 261 255 252 251 263 259 257 266
332 325 49 111 122 191 265 258 209 222 209 191 191 197 191 184 181 187 197 204 212 218 212 210 226 224 231 254 272 269 298 290 287 303 307 310 311 311 307 292 271 251 243 255 254 258 262 261 269
218 208 134 125 249 227 165 270 269 241 185 164 187 197 200 180 188 217 216 212 219 207 201 220 219 250 279 289 309 310 310 305 299 311 318 317 315 320 316 290 261 245 248 254 254 248 255 257 259